Flag for Burundi Weather past 2 weeks in Muyinga, Burundi

Now
66 °F

Passing clouds.


Feels Like: 66 °F
Forecast: 59 / 73 °F
Wind: No wind

Location: Kigali Airport

Current Time: Apr 1, 2015 at 12:05:56 AM

Latest Report: Mar 31, 2015 at 11:30 PM


Visibility: N/A

Pressure: 30.18 "Hg

Humidity: 100%

Dew point: 66 °F

Location of MuyingaLocation

Historic Weather in Muyinga — Graph

°F

Muyinga temperature yesterday

Maximum temperature yesterday: 79 °F (at 12:00 PM)
Minimum temperature yesterday: 66 °F (at 12:30 AM)
Average temperature yesterday: 69 °F

Past Weeks' High & Low Weather Summary

 TemperatureHumidityPressure
High88 °F (Mar 17, 3:00 PM)100% (Mar 20, 4:00 AM)30.21 "Hg (Mar 20, 4:00 AM)
Low63 °F (Mar 24, 8:30 AM)40% (Mar 17, 3:00 PM)29.95 "Hg (Mar 18, 3:30 PM)
Average71 °F83%30.09 "Hg
* Reported Mar 16 10:00 PM — Mar 31 10:30 PM, Muyinga, Weather by CustomWeather, © 2015

Note: Actual official high and low records may vary slightly from our data, if they occured in-between our weather recording intervals... More about our weather records

Advertising

Muyinga weather history for previous 24 hours

 ConditionsComfort  
Time TempWeatherWind HumidityBarometerVisibility
10:30 PM
Tue, Mar 31
66 °FPassing clouds.No wind100%30.18 "HgN/A
10:00 PM66 °FPassing clouds.3 mph100%30.18 "HgN/A
9:30 PM66 °FPassing clouds.No wind100%30.18 "HgN/A
9:00 PM66 °FPassing clouds.3 mph100%30.18 "HgN/A
8:30 PM66 °FPassing clouds.3 mph100%30.15 "HgN/A
8:00 PM66 °FPassing clouds.3 mph100%30.15 "HgN/A
7:30 PM68 °FPartly cloudy.5 mph100%30.15 "HgN/A
7:00 PM68 °FPartly cloudy.No wind94%30.12 "HgN/A
6:30 PM68 °FPassing clouds.No wind94%30.12 "HgN/A
6:00 PM68 °FPartly sunny.No wind94%30.09 "HgN/A
5:30 PM70 °FScattered clouds.No wind88%30.09 "HgN/A
5:00 PM70 °FScattered clouds.No wind94%30.09 "HgN/A
4:30 PM70 °FPartly sunny.No wind94%30.09 "HgN/A
4:00 PM70 °FPartly sunny.6 mph94%30.09 "HgN/A
3:30 PM72 °FScattered clouds.3 mph94%30.07 "HgN/A
3:00 PM72 °FScattered clouds.3 mph94%30.07 "HgN/A
2:30 PM68 °FPartly sunny.No wind100%30.07 "HgN/A
2:00 PM66 °FThunderstorms. Partly sunny.8 mph100%30.09 "HgN/A
12:30 PM79 °FScattered clouds.5 mph61%N/AN/A
12:00 PM79 °FScattered clouds.No wind65%30.15 "HgN/A
11:30 AM75 °FBroken clouds.5 mph69%30.18 "HgN/A
11:00 AM75 °FBroken clouds.5 mph74%30.18 "HgN/A
10:30 AM75 °FBroken clouds.3 mph74%30.21 "HgN/A
10:00 AM73 °FBroken clouds.3 mph83%30.21 "HgN/A
9:30 AM73 °FBroken clouds.No wind83%30.21 "HgN/A
9:00 AM72 °FBroken clouds.No wind83%30.21 "HgN/A
8:30 AM70 °FBroken clouds.No wind88%30.21 "HgN/A
8:00 AM68 °FBroken clouds.No wind100%30.21 "Hg5 mi
7:00 AM66 °FScattered clouds.No wind100%30.18 "Hg5 mi
6:30 AM66 °FScattered clouds.No wind100%30.15 "Hg4 mi
6:00 AM66 °FPassing clouds.No wind100%30.12 "Hg5 mi
5:30 AM66 °FPassing clouds.No wind100%30.12 "Hg5 mi
5:00 AM66 °FPassing clouds.No wind100%30.12 "Hg5 mi
4:30 AM66 °FPartly cloudy.No wind100%30.12 "HgN/A
4:00 AM66 °FPartly cloudy.No wind100%30.09 "HgN/A
3:30 AM66 °FPartly cloudy.No wind100%30.09 "HgN/A
3:00 AM66 °FPartly cloudy.No wind100%30.09 "HgN/A
2:30 AM66 °FPartly cloudy.No wind100%30.12 "HgN/A
1:30 AM66 °FPartly cloudy.No wind100%30.12 "HgN/A
1:00 AM68 °FPartly cloudy.No wind100%30.15 "HgN/A
12:30 AM66 °FPartly cloudy.No wind100%30.15 "HgN/A
Weather by CustomWeather, © 2015

See weather overviewHow to use our weather pages